Arad, Romania

1:33 AM EEST on March 27, 2017 (GMT +0300)
Arad

Weather History for LRAR - May, 2013

Change the Weather History Date:

Monday, May 27, 2013

  Actual Average Record
Temperature  
Mean Temperature 52 °F -  
Max Temperature 58 °F 76 °F 87 °F (2000)
Min Temperature 47 °F 54 °F 41 °F (1997)
Degree Days  
Heating Degree Days 12    
Growing Degree Days 2 (Base 50)    
Moisture  
Dew Point 50 °F    
Average Humidity 93    
Maximum Humidity 100    
Minimum Humidity 65    
Precipitation  
Precipitation 0.20 in - - ()
Sea Level Pressure  
Sea Level Pressure 29.86 in    
Wind  
Wind Speed 6 mph ()    
Max Wind Speed 15 mph    
Max Gust Speed -    
Visibility 6.8 miles    
Events Rain    
Averages and records for this station are not official NWS values.
T = Trace of Precipitation, MM = Missing Value Source: Averaged Metar Reports

Daily Weather History Graph

Daily Weather History Graph

Search for Another Location

Airport or City:

Trip Planner

Search our weather history database for the weather conditions in past years. The results will help you decide how hot, cold, wet, or windy it might be!

Date:

Astronomy

May. 27, 2013 Rise Set
Actual Time 5:50 AM EEST 9:14 PM EEST
Civil Twilight 5:13 AM EEST 9:51 PM EEST
Nautical Twilight 4:25 AM EEST 10:40 PM EEST
Astronomical Twilight 3:23 AM EEST 11:42 PM EEST
Moon 11:34 PM EEST (5/27) 8:08 AM EEST (5/27)
Length of Visible Light 16h 37m
Length of Day
15h 23m
Waning Gibbous, 93% of the Moon is Illuminated
May 27
Waning Gibbous
May 31
Last Quarter
Jun 8
New
Jun 16
First Quarter
Jun 23
Full

Hourly Weather History & Observations

Time (EEST) Temp. Dew Point Humidity Pressure Visibility Wind Dir Wind Speed Gust Speed Precip Events Conditions
12:00 AM 50 °F 49 °F 93% 29.83 in 6 mi WSW 2.2 mph - - Rain Light Rain Showers
12:00 AM 50.0 °F 50.0 °F 100% 29.80 in 5.0 mi SW 8.1 mph - N/A Rain Light Rain
1:00 AM 51 °F 49 °F 92% 29.82 in 6 mi SW 4.5 mph - - Rain Light Rain Showers
1:00 AM 50.0 °F 50.0 °F 100% 29.80 in 6.2 mi SW 9.2 mph - N/A   Mostly Cloudy
2:00 AM 51 °F 49 °F 88% 29.82 in 6 mi SW 6.7 mph - - Rain Light Rain Showers
2:00 AM 50.0 °F 50.0 °F 100% 29.80 in 6.2 mi WSW 11.5 mph - N/A   Scattered Clouds
3:00 AM 50 °F 48 °F 90% 29.82 in 6 mi WSW 4.5 mph - -   Partly Cloudy
3:00 AM 48.2 °F 48.2 °F 100% 29.80 in 6.2 mi WSW 9.2 mph - N/A   Partly Cloudy
4:00 AM 48.2 °F 48.2 °F 100% 29.83 in - WSW 5.8 mph - N/A   Clear
5:00 AM 48 °F 46 °F 91% 29.84 in 6 mi WSW 2.2 mph - -   Partly Cloudy
5:00 AM 48.2 °F 48.2 °F 100% 29.83 in - WNW 4.6 mph - N/A   Clear
5:30 AM 48.2 °F 48.2 °F 100% 29.83 in - West 4.6 mph - N/A   Clear
6:00 AM 48 °F 45 °F 87% 29.85 in 6 mi SW 2.2 mph - -   Mostly Cloudy
6:00 AM 48.2 °F 48.2 °F 100% 29.83 in - SSW 4.6 mph - N/A   Clear
6:30 AM 48.2 °F 48.2 °F 100% 29.83 in 6.2 mi SSW 3.5 mph - N/A   Partly Cloudy
7:00 AM 48 °F 46 °F 89% 29.86 in 12 mi SSW 2.2 mph - -   Mostly Cloudy
7:00 AM 48.2 °F 48.2 °F 100% 29.83 in 6.2 mi South 4.6 mph - N/A   Partly Cloudy
7:30 AM 48.2 °F 48.2 °F 100% 29.83 in 6.2 mi South 4.6 mph - N/A   Scattered Clouds
8:00 AM 49 °F 47 °F 91% 29.86 in 12 mi SSE 2.2 mph - -   Mostly Cloudy
8:00 AM 50.0 °F 50.0 °F 100% 29.86 in 6.2 mi SSW 6.9 mph - N/A   Mostly Cloudy
8:30 AM 50.0 °F 50.0 °F 100% 29.86 in 6.2 mi SSW 8.1 mph - N/A Rain Light Rain
9:00 AM 51 °F 48 °F 87% 29.87 in 12 mi South 6.7 mph - -   Mostly Cloudy
9:00 AM 50.0 °F 50.0 °F 100% 29.86 in 6.2 mi SSW 5.8 mph - N/A Rain Light Rain
9:30 AM 50.0 °F 50.0 °F 100% 29.86 in 6.2 mi South 8.1 mph - N/A   Mostly Cloudy
10:00 AM 50 °F 48 °F 89% 29.88 in 6 mi South 6.7 mph - - Rain Light Rain
10:00 AM 51.8 °F 51.8 °F 100% 29.86 in 6.2 mi South 9.2 mph - N/A Rain Light Rain
10:30 AM 51.8 °F 51.8 °F 100% 29.86 in 6.2 mi South 10.4 mph - N/A Rain Light Rain
11:00 AM 53 °F 47 °F 75% 29.88 in 6 mi South 6.7 mph - - Rain Light Rain
11:00 AM 53.6 °F 51.8 °F 94% 29.89 in 6.2 mi SSW 10.4 mph - N/A Rain Light Rain
11:30 AM 53.6 °F 51.8 °F 94% 29.89 in 6.2 mi SW 9.2 mph - N/A Rain Light Rain
12:00 PM 54 °F 47 °F 70% 29.89 in 12 mi SSW 6.7 mph - -   Partly Cloudy
12:00 PM 51.8 °F 51.8 °F 100% 29.89 in 6.2 mi WSW 11.5 mph - N/A Rain Light Rain
12:30 PM 51.8 °F 51.8 °F 100% 29.89 in 6.2 mi SW 11.5 mph - N/A Rain Light Rain
1:00 PM 53 °F 49 °F 80% 29.89 in 6 mi WSW 4.5 mph - - Rain Light Rain Showers
1:00 PM 53.6 °F 53.6 °F 100% 29.89 in 6.2 mi SW 8.1 mph - N/A Rain Light Rain
1:30 PM 53.6 °F 53.6 °F 100% 29.89 in 6.2 mi SW 10.4 mph - N/A Rain Light Rain
2:00 PM 54 °F 49 °F 79% 29.89 in 6 mi SSW 6.7 mph - - Rain Light Rain Showers
2:00 PM 51.8 °F 51.8 °F 100% 29.89 in 6.2 mi SW 8.1 mph - N/A Rain Light Rain
2:30 PM 55.4 °F 55.4 °F 100% 29.86 in 6.2 mi SW 12.7 mph - N/A   Mostly Cloudy
3:00 PM 55 °F 49 °F 74% 29.88 in 12 mi SSW 8.9 mph - - Rain Light Rain Showers
3:00 PM 53.6 °F 53.6 °F 100% 29.86 in 6.2 mi SW 9.2 mph - N/A   Mostly Cloudy
3:30 PM 55.4 °F 55.4 °F 100% 29.86 in 6.2 mi SSW 15.0 mph - N/A   Mostly Cloudy
4:00 PM 56 °F 49 °F 72% 29.88 in 12 mi SSW 11.2 mph - - Rain Light Rain Showers
4:00 PM 55.4 °F 55.4 °F 100% 29.86 in 6.2 mi SW 15.0 mph - N/A   Mostly Cloudy
4:30 PM 57.2 °F 53.6 °F 88% 29.86 in 6.2 mi SW 12.7 mph - N/A   Scattered Clouds
5:00 PM 58 °F 49 °F 65% 29.87 in 12 mi SSW 8.9 mph - - Rain Light Rain Showers
5:00 PM 57.2 °F 53.6 °F 88% 29.86 in 6.2 mi SW 11.5 mph - N/A   Scattered Clouds
5:30 PM 57.2 °F 53.6 °F 88% 29.86 in 6.2 mi SW 11.5 mph - N/A   Scattered Clouds
6:00 PM 58 °F 50 °F 66% 29.87 in 12 mi SW 6.7 mph - -   Partly Cloudy
6:00 PM 57.2 °F 53.6 °F 88% 29.86 in 6.2 mi SW 9.2 mph - N/A   Mostly Cloudy
6:30 PM 57.2 °F 55.4 °F 94% 29.86 in 6.2 mi SSW 10.4 mph - N/A Rain Light Rain
7:00 PM 57 °F 51 °F 73% 29.87 in 12 mi SSW 8.9 mph - -   Overcast
7:00 PM 53.6 °F 53.6 °F 100% 29.86 in 6.2 mi SSW 8.1 mph - N/A Rain Light Rain
7:30 PM 53.6 °F 53.6 °F 100% 29.86 in 6.2 mi South 10.4 mph - N/A Rain Light Rain
8:00 PM 53 °F 51 °F 89% 29.87 in 6 mi South 6.7 mph - - Rain Light Rain Showers
8:00 PM 51.8 °F 51.8 °F 100% 29.86 in 3.1 mi SW 9.2 mph - N/A Rain Rain Showers
8:30 PM 51.8 °F 51.8 °F 100% 29.86 in 3.1 mi SSW 6.9 mph - N/A Rain Rain Showers
9:00 PM 51 °F 50 °F 93% 29.89 in 6 mi SSW 2.2 mph - - Rain Light Rain Showers
9:00 PM 51.8 °F 51.8 °F 100% 29.89 in 4.3 mi SW 6.9 mph - N/A Rain Light Rain Showers
10:00 PM 51 °F 50 °F 97% 29.88 in 6 mi SE 2.2 mph - - Rain Light Rain Showers
10:00 PM 51.8 °F 51.8 °F 100% 29.89 in 6.2 mi South 6.9 mph - N/A Rain Light Rain Showers
11:00 PM 52 °F 51 °F 95% 29.89 in 6 mi South 4.5 mph - - Rain Light Rain Showers
11:00 PM 51.8 °F 51.8 °F 100% 29.89 in 3.1 mi SSW 4.6 mph - N/A Rain Rain Showers